TimeMST,TemperatureF,Dew PointF,Humidity,Sea Level PressureIn,VisibilityMPH,Wind Direction,Wind SpeedMPH,Gust SpeedMPH,PrecipitationIn,Events,Conditions,WindDirDegrees,DateUTC
12:53 AM,18.0,3.9,54,30.13,10.0,West,5.8,-,N/A,,Clear,270,2014-01-05 07:53:00
1:53 AM,18.0,3.9,54,30.16,10.0,Calm,Calm,-,N/A,,Clear,0,2014-01-05 08:53:00
2:53 AM,15.1,3.0,59,30.19,10.0,West,5.8,-,N/A,,Clear,260,2014-01-05 09:53:00
3:53 AM,15.1,1.9,56,30.21,10.0,West,3.5,-,N/A,,Clear,280,2014-01-05 10:53:00
4:53 AM,10.9,-0.0,61,30.24,10.0,NW,4.6,-,N/A,,Clear,310,2014-01-05 11:53:00
5:53 AM,12.9,-0.0,56,30.27,10.0,West,4.6,-,N/A,,Clear,260,2014-01-05 12:53:00
6:53 AM,10.0,-0.9,61,30.32,10.0,West,4.6,-,N/A,,Clear,260,2014-01-05 13:53:00
7:53 AM,14.0,1.0,56,30.33,10.0,SW,3.5,-,N/A,,Clear,230,2014-01-05 14:53:00
8:53 AM,19.0,1.9,47,30.35,10.0,Variable,4.6,-,N/A,,Clear,0,2014-01-05 15:53:00
9:53 AM,25.0,3.0,39,30.34,10.0,West,10.4,-,N/A,,Clear,270,2014-01-05 16:53:00
10:53 AM,28.9,3.0,33,30.32,10.0,West,15.0,21.9,N/A,,Clear,270,2014-01-05 17:53:00
11:53 AM,30.9,-0.0,27,30.30,10.0,West,19.6,28.8,N/A,,Clear,280,2014-01-05 18:53:00
12:53 PM,34.0,-4.0,20,30.26,10.0,WNW,17.3,26.5,N/A,,Clear,300,2014-01-05 19:53:00
1:53 PM,34.0,-6.0,18,30.26,10.0,WNW,19.6,29.9,N/A,,Clear,300,2014-01-05 20:53:00
2:53 PM,32.0,-0.9,24,30.28,10.0,West,25.3,29.9,N/A,,Clear,280,2014-01-05 21:53:00
3:53 PM,30.9,-0.0,27,30.31,10.0,West,19.6,-,N/A,,Clear,280,2014-01-05 22:53:00
4:53 PM,28.9,-0.0,29,30.35,10.0,West,19.6,-,N/A,,Clear,280,2014-01-05 23:53:00
5:53 PM,26.1,-2.0,30,30.37,10.0,WNW,9.2,-,N/A,,Clear,300,2014-01-06 00:53:00
6:53 PM,24.1,-2.0,32,30.41,10.0,WNW,9.2,-,N/A,,Clear,300,2014-01-06 01:53:00
7:53 PM,23.0,-2.0,34,30.43,10.0,West,8.1,-,N/A,,Clear,270,2014-01-06 02:53:00
8:53 PM,23.0,-0.9,35,30.40,10.0,West,16.1,-,N/A,,Clear,270,2014-01-06 03:53:00
9:53 PM,19.9,-0.9,40,30.40,10.0,West,15.0,-,N/A,,Clear,260,2014-01-06 04:53:00
10:53 PM,19.9,-0.9,40,30.37,10.0,West,23.0,-,N/A,,Clear,270,2014-01-06 05:53:00
11:53 PM,19.9,-0.9,40,30.36,10.0,WNW,20.7,-,N/A,,Clear,290,2014-01-06 06:53:00